This is the latest recevied weather packets stored in our database for station/object MM1PTT-13. If no packets are shown the sender has not sent any weather packets the latest 10 day(s).
| Time | Temp. | Humidity | Pressure | Rain* | Wind** | Luminosity | Snow |
|---|---|---|---|---|---|---|---|
| 1777316743 | 14.44° C | 70% | 998.3 hPa | 0 mm | - | 21 W/m² | - |
| 1777316445 | 14.44° C | 69% | 998 hPa | 0 mm | - | 23 W/m² | - |
| 1777316145 | 14.44° C | 69% | 998 hPa | 0 mm | - | 25 W/m² | - |
| 1777315842 | 14.44° C | 70% | 998 hPa | 0 mm | - | 32 W/m² | - |
| 1777315543 | 14.44° C | 72% | 998 hPa | 0 mm | - | 34 W/m² | - |
| 1777315243 | 14.44° C | 73% | 998 hPa | 0 mm | - | 39 W/m² | - |
| 1777314943 | 15° C | 71% | 998 hPa | 0 mm | - | 47 W/m² | - |
| 1777314642 | 14.44° C | 72% | 998 hPa | 0 mm | - | 51 W/m² | - |
| 1777314343 | 14.44° C | 72% | 997.6 hPa | 0 mm | - | 48 W/m² | - |
| 1777314043 | 14.44° C | 71% | 997.6 hPa | 0 mm | - | 51 W/m² | - |
| 1777313743 | 15° C | 70% | 997.6 hPa | 0 mm | - | 71 W/m² | - |
| 1777313443 | 15° C | 69% | 997.6 hPa | 0 mm | - | 72 W/m² | - |
| 1777313143 | 15° C | 68% | 998 hPa | 0 mm | - | 63 W/m² | - |
| 1777312842 | 15° C | 68% | 997.6 hPa | 0 mm | - | 69 W/m² | - |
| 1777312543 | 15° C | 67% | 997.6 hPa | 0 mm | - | 68 W/m² | - |
| 1777312242 | 15° C | 67% | 997.6 hPa | 0 mm | - | 77 W/m² | - |
| 1777311942 | 15° C | 67% | 997.6 hPa | 0 mm | - | 100 W/m² | - |
| 1777311643 | 15° C | 68% | 997.6 hPa | 0 mm | - | 101 W/m² | - |
| 1777311343 | 15° C | 68% | 997.6 hPa | 0 mm | - | 74 W/m² | - |
| 1777311043 | 15.56° C | 66% | 997.3 hPa | 0 mm | - | 77 W/m² | - |
| 1777310743 | 16.11° C | 65% | 997.6 hPa | 0 mm | - | 119 W/m² | - |
| 1777310444 | 16.11° C | 65% | 997.6 hPa | 0 mm | - | 81 W/m² | - |
| 1777310143 | 16.11° C | 66% | 997.6 hPa | 0 mm | - | 114 W/m² | - |
| 1777309843 | 16.11° C | 68% | 997.3 hPa | 0 mm | - | 121 W/m² | - |
| 1777309543 | 15.56° C | 69% | 997.6 hPa | 0 mm | - | 134 W/m² | - |
* Rain latest hour (hover to see other rain measurements)
** Current wind speed in m/s (hover to see current wind gust speed)